Location: Fort Worth, Tx
(32.7431°N, 97.3695°W)
Time: 07:22:06
(UTC-05:00)

Envisat - Visible Passes

Search period start: 05 March 2024 00:00
Search period end: 15 March 2024 01:00
Orbit: 762 x 764 km, 98.3° (Epoch: 04 March)

Date Brightness Start Highest point End Pass type
(mag) Time Alt. Az. Time Alt. Az. Time Alt. Az.
06 Mar 5.4 05:39:22 10° NNW 05:39:30 11° NNW 05:39:30 11° NNW visible
07 Mar 5.6 05:01:33 10° N 05:01:54 12° N 05:01:54 12° N visible
09 Mar 5.3 05:26:12 10° N 05:26:53 14° N 05:26:53 14° N visible
10 Mar 5.5 05:48:38 10° NNE 05:49:18 14° NNE 05:49:18 14° NNE visible
11 Mar 5.2 06:51:13 10° NNW 06:51:52 13° NNW 06:51:52 13° NNW visible
12 Mar 5.1 06:13:06 10° N 06:14:16 17° N 06:14:16 17° N visible
13 Mar 5.5 05:35:47 10° NNE 05:36:41 15° NNE 05:36:41 15° NNE visible
14 Mar 4.9 06:37:54 10° N 06:39:15 17° NNW 06:39:15 17° NNW visible
